Regional Weather Roundup
Issued by NWS

Home | Current Version | Previous Version | Graphics & Text | Print | Product List | Glossary On
Versions: 1 2 3 4 5 6 7 8 9 10 11 12 13 14 15 16 17 18 19 20 21 22 23 24 25 26 27 28 29 30 31 32 33 34 35 36 37 38 39 40 41 42 43 44 45 46 47 48 49 50
000
ASUS43 KFSD 191902
RWRSD

WEATHER ROUNDUP FOR SOUTH DAKOTA
NATIONAL WEATHER SERVICE SIOUX FALLS SD
200 PM CDT THU APR 19 2018

NOTE: "FAIR" INDICATES FEW OR NO CLOUDS BELOW 12,000 FEET WITH NO
SIGNIFICANT WEATHER AND/OR OBSTRUCTIONS TO VISIBILITY.


SDZ001>005-009-010-012>017-192000-
NORTHWEST AND NORTH CENTRAL SOUTH DAKOTA

CITY           SKY/WX    TMP DP  RH WIND       PRES   REMARKS
BUFFALO          N/A     56  27  32 SE17G24   30.20F
FAITH            N/A     52  36  54 SE12      30.32F
MOBRIDGE       SUNNY     53  27  36 S10       30.36F
$$

SDZ012>016-024>037-041>051-057-063-072>074-192000-
SOUTHWEST AND SOUTH CENTRAL SOUTH DAKOTA

CITY           SKY/WX    TMP DP  RH WIND       PRES   REMARKS
RAPID CTY ARPT MOSUNNY   56  30  37 S17G26    30.27F
PIERRE         SUNNY     50  31  48 S12       30.38F
CUSTER         MOSUNNY   46  25  43 SE14G24   30.24F
ELLSWORTH AFB  MOSUNNY   57  31  37 S12G28    30.26F
PHILIP         MOSUNNY   54  33  45 S7G21     30.34F
PINE RIDGE     PTSUNNY   56  30  37 S13       30.28F
SPEARFISH      FAIR      57  27  30 SE12G22   30.21F
WINNER         FAIR      44  31  60 SE10      30.41F
$$

SDZ004>011-016>023-039-040-192000-
NORTHEAST SOUTH DAKOTA

CITY           SKY/WX    TMP DP  RH WIND       PRES   REMARKS
ABERDEEN       SUNNY     55  31  39 SW8       30.42F
WATERTOWN      SUNNY     48  28  46 VRB7      30.44F
BROOKINGS      SUNNY     47  21  35 S9        30.47F
SISSETON         N/A     53  30  41 W9        30.43F
$$

SDZ017-020-022-023-036>040-048>070-192000-
SOUTHEAST SOUTH DAKOTA

CITY           SKY/WX    TMP DP  RH WIND       PRES   REMARKS
SIOUX FALLS    MOSUNNY   44  26  49 W3        30.48F
HURON          SUNNY     43  29  57 S10       30.46F
CHAMBERLAIN    SUNNY     48  28  44 S12       30.42F
MITCHELL       SUNNY     44  33  65 CALM      30.48F
YANKTON        SUNNY     48  32  53 CALM      30.47F
$$

ABBREVIATIONS USED IN REMARKS
   TC - TEMPERATURE IN CELSIUS
  WCI - WIND CHILL INDEX
   HX - HEAT INDEX
  VSB - VISIBILITY





USA.gov is the U.S. government's official web portal to all federal, state and local government web resources and services.